Погода в Янгикишлаке

Узбекистан     40°25′02″N   67°10′44″E
темп.,
°C
ветер,
м/с
пор.,
м/с
влажн.,
%
обл.,
%
осадки,
мм/ч
давл.,
гПа
погр.,
м
6 марта, сб
сб623:00+7юв485886 0.0 1020253
02:00+7юв51058100 0.0 1017231
05:00+6вюв5962100 0.0 1015188
08:00+6вюв4964100 0.0 1013313
11:00+9вюв5746100 0.0 1013459
14:00+11св2243100 0.0 1012450
17:00+7ссз1174100 2.5 1013200
20:00+6ссз2293100 4.7 1016183
7 марта, вс
вс723:00+6в2488100 5.9 1018450
02:00+7юз61179100 0.0 1019537
05:00+5зсз3681100 0.0 1021390
08:00+4сз3488100 0.0 1022317
11:00+6с1273100 0.0 1022597
14:00+8в226799 0.0 1020665
17:00+10юв345984 0.0 10181052
20:00+7ююв237441 0.0 101960
8 марта, пн
пн823:00+7ююз337321 0.0 101943
02:00+6юз33750 0.0 101935
05:00+5зюз127740 0.0 101923
08:00+7ююз1273100 0.0 102124
11:00+12в1253100 0.0 1020489
14:00+15всв2345100 0.0 10191183
17:00+15всв4447100 0.0 1019711
20:00+11в2362100 0.0 102033
9 марта, вт
вт923:00+10ююв2362100 0.0 102028
02:00+9ююв236096 0.0 101827
05:00+10ююв345998 0.0 101642
08:00+11юв3658100 0.0 1015116
11:00+14вюв7947100 0.0 1012425
14:00+19вюв6634100 0.0 1009533
17:00+17юв7937100 0.0 1009303
20:00+16юз41140100 0.0 1009245
10 марта, ср
ср1023:00+15юз4541100 0.0 100981
02:00+13ююз3448100 0.1 100837
05:00+12ююз5859100 0.9 1010133
08:00+12юз3567100 0.3 1013177
11:00+13зсз575091 0.3 10161235
14:00+12зюз5105899 0.1 10181431
17:00+13з583873 0.1 10201648
20:00+7ссз366376 0.0 1023326